Location: Cottbus
(51.7000°N, 14.3000°E)
Time: 11:32:38
(UTC+01:00)

ISS - Pass Details

Date: 26 January 2019
Orbit: 403 x 411 km, 51.6° (Epoch: 23 February)

Event Time Altitude Azimuth Distance (km) Brightness Sun altitude
Rises 19:10:38 0° 248° (WSW) 2,333 1.2 -23.0°
Reaches altitude 10° 19:12:43 10° 245° (WSW) 1,475 -0.1 -23.4°
Enters shadow 19:14:49 35° 232° (SW) 684 -2.3 -23.7°
